Hourly Data Report for February 24, 2005

TORONTO CITY
ONTARIO

43°40'00.000" N
79°24'00.000" W
112.50 m
6158355
71508
XTO

Download Data

Hourly Data (February 2005)
Hourly Data Report for February 24, 2005
TIME
LST
Temp Definition
°C
Dew Point Definition
°C
Rel Hum Definition
%
Precip. Amount Definition
mm

Wind Dir Definition
10's deg

Wind Spd Definition
km/h
Visibility Definition
km
Stn Press Definition
kPa
Hmdx Definition


Wind Chill Definition


Weather Definition


00:00 -8.8 -14.0 66   LegendMM LegendMM   101.38     LegendNANA
01:00 -9.3 -14.0 69   LegendMM LegendMM   101.36     LegendNANA
02:00 -9.7 -14.1 70   LegendMM LegendMM   101.40     LegendNANA
03:00 -10.3 -14.6 71   LegendMM LegendMM   101.35     LegendNANA
04:00 -10.6 -15.0 70   LegendMM LegendMM   101.28     LegendNANA
05:00 -10.6 -15.4 68   LegendMM LegendMM   101.30     LegendNANA
06:00 -10.5 -15.3 68   LegendMM LegendMM   101.32     LegendNANA
07:00 -10.4 -15.8 65   LegendMM LegendMM   101.29     LegendNANA
08:00 -10.0 -15.4 65   LegendMM LegendMM   101.28     LegendNANA
09:00 -8.3 -13.1 68   LegendMM LegendMM   101.26     LegendNANA
10:00 -6.8 -10.5 75   LegendMM LegendMM   101.23     LegendNANA
11:00 -5.6 -9.8 72   LegendMM LegendMM   101.21     LegendNANA
12:00 -5.8 -11.7 63   LegendMM LegendMM   101.13     LegendNANA
13:00 -5.5 -11.6 62   LegendMM LegendMM   101.04     LegendNANA
14:00 -5.0 -11.2 62   LegendMM LegendMM   100.98     LegendNANA
15:00 -5.6 -11.3 64   LegendMM LegendMM   100.92     LegendNANA
16:00 -5.5 -11.4 63   LegendMM LegendMM   100.88     LegendNANA
17:00 -5.7 -12.5 59   LegendMM LegendMM   100.84     LegendNANA
18:00 -6.2 -14.5 52   LegendMM LegendMM   100.85     LegendNANA
19:00 -6.6 -15.8 48   LegendMM LegendMM   100.86     LegendNANA
20:00 -7.0 -16.4 47   LegendMM LegendMM   100.87     LegendNANA
21:00 -7.4 -16.4 49   LegendMM LegendMM   100.91     LegendNANA
22:00 -8.1 -16.3 52   LegendMM LegendMM   100.91     LegendNANA
23:00 -8.4 -16.4 52   LegendMM LegendMM   100.89     LegendNANA

Notes on Data Quality.

Legend

  • E = Estimated
  • M = Missing
  • NA = Not Available*
  • [empty] = Indicates an unobserved value
Date modified: